Location: Unspecified
(29.9680°N, 0.0000°E)
Time: 10:07:45
(UTC+00:00)

A-11 Canister half - Pass Details

Date: 23 June 2019
Orbit: 1527 x 1682 km, 47.3° (Epoch: 15 October)

Event Time Altitude Azimuth Distance (km) Brightness Sun altitude
Rises 02:18:23 0° 211° (SSW) 4,814 - -27.4°
Reaches altitude 10° 02:21:37 10° 206° (SSW) 3,808 - -27.0°
Exits shadow 02:27:28 38° 184° (S) 2,232 9.4 -26.2°
Maximum altitude 02:30:53 54° 132° (SE) 1,845 9.3 -25.8°
Drops below altitude 10° 02:39:55 10° 59° (ENE) 3,715 12.0 -24.5°
Sets 02:43:01 0° 55° (NE) 4,690 12.8 -24.1°
